Volver al catálogo

SL-8 R/B

ActivoLEO
NORAD 6020·ROCKET BODY·🇷🇺 Russia

Lanzado May 6, 1972 desde Plesetsk Cosmodrome

Loading…

Próximos Pases (próximas 24 horas)

TLE

ActualizadoSource: Space-Track

Época: Sep 14, 2026, 15:12 UTC

1 06020U 72035B   26257.63378159 -.00000034  00000-0 -10393-4 0  9998
2 06020  74.0234  30.9589 0021255 335.1586  35.7866 13.79166998734323

Sigue SL-8 R/B en tiempo real con AllMySat

Download on the App Store